Regional Weather Roundup
Issued by NWS State College, PA

Home | Current Version | Previous Version | Text Only | Print | Product List | Glossary Off
Versions: 1 2 3 4 5 6 7 8 9 10 11 12 13 14 15 16 17 18 19 20 21 22 23 24 25 26 27 28 29 30 31 32 33 34 35 36 37 38 39 40 41 42 43 44 45 46 47 48 49 50

543
ASUS41 KCTP 221010
RWRCTP

REGIONAL WEATHER ROUNDUP
NATIONAL WEATHER SERVICE STATE COLLEGE PA
600 AM EDT FRI MAY 22 2015

Note: "fair" indicates few or no clouds below 12,000 feet with no
significant weather and/or obstructions to visibility.

* = STATION THAT DOES NOT REPORT PRECIPITATION /E.G. RAIN...SNOW...ETC/
    THUNDER OR FOG.

PAZ002>004-007>009-013>016-020>023-029>032-221100-
WESTERN PENNSYLVANIA

CITY           SKY/WX    TMP DP  RH WIND       PRES   REMARKS
ERIE           CLOUDY    52  38  58 W7        30.01R
MEADVILLE      MOCLDY    45  37  73 SW6       30.01R
FRANKLIN*      MOCLDY    43  34  70 SW7       30.03S
NEW CASTLE     PTSUNNY   45  39  79 CALM      30.05S
BEAVER COUNTY  NOT AVBL
BUTLER*        CLEAR     39  37  93 W3        30.07R
PITTSBURGH INT PTCLDY    44  38  79 W6        30.06R
PITTSBURGH     CLEAR     45  35  68 SW9       30.06R
INDIANA*       CLOUDY    41  41 100 W3        30.09R FOG
LATROBE        CLEAR     45  45 100 S7        30.09R
WASHINGTON CO* CLEAR     37  36  93 SW3       30.10R
$$

PAZ004>006-010>012-017>019-024>028-033>037-041-042-045-046-049>053-221100-
CENTRAL PENNSYLVANIA

CITY           SKY/WX    TMP DP  RH WIND       PRES   REMARKS
BRADFORD       CLEAR     42  34  73 W5        29.97R
DUBOIS         CLEAR     40  37  89 SW8       30.00R FOG
CLEARFIELD     CLEAR     41  39  93 S7        30.01R FOG
JOHNSTOWN      CLEAR     41  37  86 SW9       30.04R
ALTOONA        CLEAR     44  38  79 SW9       30.03R
STATE COLLEGE  CLEAR     43  39  87 SW6       30.00R
WILLIAMSPORT   CLEAR     46  42  86 W9        29.97R
SELINSGROVE    CLEAR     48  40  73 NW5       29.99R
FT INDIANTOWN  CLEAR     52  40  63 W13       29.97R
CAPITAL CITY   CLEAR     48  40  73 W6        30.00R
HARRISBURG     CLEAR     51  41  68 NW9       29.99R
YORK           CLEAR     49  40  71 W5        30.00R
$$

PAZ038>040-043-044-047-048-054-055-060>062-067>071-221100-
EASTERN PENNSYLVANIA

CITY           SKY/WX    TMP DP  RH WIND       PRES   REMARKS
SCRANTON       CLEAR     46  41  82 SW5       29.93R
MOUNT POCONO   CLEAR     40  38  93 W7        29.91R
ALLENTOWN      CLEAR     45  40  82 W6        29.94R
QUAKERTOWN*    SUNNY     48  43  81 CALM      29.94R
READING        CLEAR     47  42  83 CALM      29.96R
LANCASTER      CLEAR     48  42  80 W12       29.97R
COATESVILLE    SUNNY     46  45  93 NW10      29.97R
POTTSTOWN      CLEAR     48  44  86 CALM      29.96R
BLUE BELL      CLEAR     50  45  81 W3        29.93R
DOYLESTOWN     CLEAR     48  43  82 VRB6      29.93R
WILLOW GROVE   NOT AVBL
NORTH PHILA    CLEAR     50  43  77 W7        29.95R
PHILADELPHIA   CLEAR     53  44  71 W9        29.95R
$$



USA.gov is the U.S. government's official web portal to all federal, state and local government web resources and services.